Theta_e
299 300 300 300 301 301 302 302 301 299 298 296 295 296 298 299 300 301 301 299 297 297 295 292 289 287 286 284 284 283 283 283 280 279 280 282 282 281 281 282 281 281 281
298 299 299 299 299 300 301 301 299 299 296 295 294 293 294 296 296 298 296 295 295 292 290 288 287 285 284 284 284 283 283 282 281 278 279 279 279 280 280 280 280 281 280
298 298 298 298 298 299 300 298 297 295 293 291 291 291 291 292 293 295 295 293 293 292 289 287 286 284 283 282 282 281 281 281 281 280 278 279 279 279 279 279 279 280 280
297 297 297 298 298 299 298 296 295 293 291 290 289 288 288 289 291 292 292 291 290 290 288 287 285 284 283 282 281 281 281 280 280 279 278 278 278 279 279 278 277 279 279
296 296 297 297 296 295 293 292 291 289 289 287 286 285 284 285 288 288 289 288 288 286 285 284 283 283 284 284 282 281 281 280 279 278 277 277 277 278 277 278 277 278 278
295 295 297 293 291 291 290 290 289 287 286 285 285 285 283 286 289 290 288 287 286 284 283 282 282 282 284 285 286 285 283 280 279 278 278 278 278 278 279 278 278 277 275
290 289 289 289 288 289 289 288 287 286 284 285 283 283 283 284 289 290 289 285 285 284 283 282 281 282 283 284 286 286 285 286 284 281 279 279 279 279 279 278 278 277 276
287 286 286 286 286 285 285 286 285 283 283 283 282 281 282 284 288 290 289 284 284 283 283 282 282 282 283 283 283 282 282 283 283 283 282 281 281 281 281 280 279 277 276
286 286 286 284 285 283 283 283 280 279 279 279 279 279 280 283 287 289 288 283 282 282 282 282 282 282 285 286 282 281 281 281 285 285 284 284 284 284 283 278 273 271 272
285 285 285 285 284 284 283 279 278 277 279 280 279 278 280 283 286 288 288 282 280 280 281 282 283 283 286 286 282 282 280 281 280 280 281 284 285 285 286 280 277 271 270
283 283 282 282 280 279 277 278 277 276 278 279 281 281 282 282 284 288 289 282 281 279 280 281 282 286 286 287 285 282 282 281 281 279 279 279 279 278 278 278 278 274 269
279 280 280 277 279 278 275 276 280 280 280 279 279 279 279 281 284 287 288 284 283 280 279 281 283 287 288 289 285 285 286 283 280 280 278 277 277 276 277 275 275 274 274
277 279 276 273 275 274 275 281 280 280 279 278 278 278 278 280 282 287 288 285 285 282 282 282 285 288 289 288 288 287 285 282 279 278 277 277 278 278 276 273 272 272 271
276 276 274 274 273 272 278 278 279 279 278 277 277 277 278 279 279 284 284 284 285 282 283 283 284 286 287 286 284 286 284 284 280 279 278 277 275 273 272 271 268 267 263
277 275 272 273 272 273 275 275 275 274 278 278 278 277 277 276 278 283 284 283 283 283 282 283 282 283 283 283 281 282 281 280 280 278 276 273 272 271 270 269 267 261 259
275 278 277 279 278 277 277 279 283 283 284 283 283 280 279 281 283 285 286 285 285 286 283 281 281 282 281 280 279 277 277 277 277 275 274 273 271 270 268 266 262 260 259
274 280 279 278 278 278 277 278 278 282 285 285 286 284 283 283 284 285 287 287 287 287 282 281 281 281 280 278 278 277 275 275 274 273 272 270 268 268 265 263 264 262 255
281 280 279 279 279 278 278 278 278 276 276 276 282 284 286 286 285 285 286 286 283 285 281 281 281 279 278 277 276 273 270 270 269 268 267 267 265 264 262 263 262 255 253
278 278 278 278 277 277 277 277 277 276 274 274 274 277 277 285 285 286 286 282 279 278 275 273 273 272 272 272 271 269 267 266 264 263 259 261 262 263 261 261 261 259 255
275 277 277 277 277 277 276 276 276 275 275 273 272 272 273 273 271 271 273 276 274 273 273 272 271 268 263 262 262 263 263 262 260 259 261 264 263 262 259 257 257 255 254
273 272 273 272 272 273 273 273 273 273 271 270 270 274 277 268 267 266 266 266 266 265 263 263 262 262 259 258 257 257 257 261 262 262 261 261 258 254 255 259 257 256 254
270 269 269 269 269 269 269 269 269 268 267 267 267 269 272 266 265 263 262 260 258 257 255 255 254 254 255 257 259 260 259 260 259 258 256 255 254 253 254 254 255 255 253
268 267 267 266 266 266 265 265 265 265 264 264 264 263 263 262 261 259 256 255 255 254 252 252 253 253 254 255 256 257 258 256 256 254 254 253 252 253 253 254 253 251 251
265 265 264 264 264 263 263 262 262 262 261 260 259 259 260 258 256 255 253 252 252 250 250 249 250 250 249 248 247 246 247 248 248 253 254 254 254 255 254 251 253 253 252
263 262 262 262 262 261 261 260 260 259 258 259 258 257 255 255 253 251 250 249 248 249 250 248 248 248 248 248 247 247 247 257 249 252 254 255 254 253 254 253 253 251 251
261 261 260 260 259 259 259 258 258 258 258 257 257 254 253 252 251 249 248 248 249 249 248 248 247 248 249 250 250 252 254 259 256 256 252 254 254 254 253 252 253 251 252
Wind_Speed
7 6 7 6 7 7 8 8 9 8 10 10 11 12 13 13 13 13 12 12 15 13 11 14 14 10 8 6 5 4 4 4 5 2 2 2 7 7 5 4 4 4 4
6 7 7 7 7 9 11 10 8 10 9 11 11 11 12 12 12 14 12 12 15 13 14 12 12 9 11 8 7 8 6 4 5 6 2 3 3 4 4 5 4 4 4
8 8 7 8 9 12 11 8 8 8 10 9 10 12 12 13 12 13 12 12 13 13 13 13 13 12 10 9 6 6 5 3 3 5 4 2 2 3 2 3 4 4 4
8 8 9 12 12 10 8 7 8 7 9 10 10 10 10 10 12 12 12 10 11 10 11 12 12 14 13 11 8 9 8 6 4 7 3 4 3 2 2 3 3 3 3
8 8 12 9 6 6 7 7 7 7 6 7 8 7 7 9 9 11 12 12 12 10 9 9 11 11 15 14 9 9 10 6 5 5 4 3 3 3 5 3 3 3 3
7 10 9 7 6 7 7 7 7 8 8 8 9 9 9 8 14 19 14 11 12 12 12 10 10 13 17 20 18 17 13 11 7 5 3 3 4 4 4 4 3 3 2
7 7 7 7 7 8 7 7 8 8 6 9 8 8 9 9 16 19 19 10 11 12 12 12 11 10 15 13 17 18 13 12 9 7 8 5 5 5 5 4 4 3 3
7 6 6 6 7 5 5 8 6 6 9 8 8 7 6 7 15 17 19 9 8 10 12 14 14 14 15 13 12 9 7 6 6 4 4 6 4 6 5 5 4 2 1
8 7 5 4 6 4 6 6 2 3 3 4 4 6 7 6 16 17 15 7 7 9 11 12 14 16 23 23 14 13 9 6 7 9 9 9 8 10 8 4 3 3 2
7 7 6 5 5 6 5 4 3 3 4 4 4 5 5 6 14 17 17 7 9 8 8 10 19 18 27 25 13 12 10 8 8 6 4 8 10 9 16 7 5 3 3
9 8 6 3 4 4 3 2 2 1 3 3 5 5 6 7 9 18 21 7 8 8 8 8 8 23 27 25 16 11 9 8 11 7 5 4 3 3 2 3 5 4 3
6 6 6 5 2 2 4 2 3 3 2 2 2 1 0 3 9 19 22 14 15 9 10 8 10 24 24 23 14 16 13 10 6 5 5 5 6 6 4 4 5 3 2
4 5 3 4 4 2 3 5 4 4 3 2 1 2 0 1 1 14 19 16 15 6 5 9 13 20 18 16 17 12 11 6 5 5 6 6 6 5 7 5 3 4 4
3 3 2 1 2 2 2 2 2 4 4 4 3 2 1 1 1 2 6 8 11 9 14 11 11 10 8 5 5 10 5 5 7 7 6 4 5 5 4 4 3 3 2
2 3 1 1 1 0 1 2 2 2 4 5 3 4 5 3 3 6 8 5 6 9 9 8 7 9 8 6 4 4 4 4 6 5 5 5 5 5 4 4 3 2 3
3 1 1 3 2 3 2 1 3 4 6 6 8 6 2 5 10 12 13 16 16 18 6 6 6 6 7 6 5 4 3 5 3 4 4 6 6 6 5 3 2 3 3
4 4 2 1 1 2 1 2 3 2 2 4 8 8 9 7 12 13 15 18 18 16 5 6 5 5 6 5 5 5 4 4 3 4 4 5 4 4 6 4 3 3 2
4 4 3 3 2 2 2 2 2 2 2 2 10 8 4 8 10 13 13 11 6 8 2 6 6 5 4 4 5 4 3 4 3 3 4 4 5 4 3 4 5 4 3
1 1 0 2 2 3 3 3 3 4 4 3 3 7 8 10 7 7 12 1 2 1 2 2 3 3 3 3 3 3 4 4 3 4 3 4 4 4 2 3 4 5 4
3 5 3 3 3 4 4 4 4 4 4 4 4 3 3 4 4 4 5 4 4 4 3 3 3 3 2 3 3 3 3 3 3 3 3 4 4 4 3 3 4 3 4
3 5 7 5 6 5 5 5 4 4 5 4 3 4 11 5 4 4 4 5 4 3 3 3 2 2 2 3 3 3 2 2 2 3 3 3 4 3 3 4 4 3 3
5 5 6 7 6 6 5 5 5 6 5 4 5 7 12 5 5 4 4 3 3 3 1 2 3 2 2 2 2 2 3 3 3 2 3 3 3 3 3 3 3 3 3
6 7 7 7 6 7 7 6 6 5 5 5 4 5 5 4 4 4 3 3 3 3 3 3 3 2 1 1 1 2 3 4 4 4 5 4 4 4 4 4 4 3 3
7 8 8 6 6 6 6 6 5 7 5 5 4 3 4 3 3 3 1 1 2 2 2 2 1 1 0 1 1 0 2 2 3 5 6 5 5 5 4 3 4 5 3
7 7 7 6 5 5 6 6 5 5 4 4 2 2 2 2 1 1 1 1 1 1 2 2 1 2 3 4 4 5 5 5 4 4 3 4 5 6 4 4 4 3 4
7 7 6 5 5 5 4 4 3 3 3 3 3 2 1 1 2 2 2 2 2 2 3 3 4 6 6 5 7 7 6 7 6 6 4 4 5 4 4 5 7 3 4
Wind_Direction
234 231 225 223 216 211 217 215 205 189 188 191 192 201 207 208 207 204 202 198 199 197 195 197 195 179 179 176 164 163 146 139 130 174 124 153 169 169 173 176 198 213 226
242 237 235 230 220 225 227 221 195 202 191 191 192 196 202 206 206 207 200 194 197 194 190 185 187 171 183 171 168 183 160 142 142 141 122 132 158 175 170 171 206 213 220
217 223 234 237 225 228 229 216 202 193 191 185 188 195 195 200 203 210 206 198 200 196 187 187 183 177 172 165 172 143 132 135 117 140 138 140 125 133 133 181 196 223 233
215 215 226 233 232 237 241 220 208 197 191 188 193 198 195 194 200 204 206 200 198 195 187 188 182 180 173 167 167 157 146 138 137 132 101 133 126 128 146 182 215 220 244
219 222 234 244 233 228 224 220 214 202 200 190 188 199 191 194 198 196 197 195 192 181 181 179 176 168 163 170 165 166 157 146 142 140 117 137 147 165 194 175 196 197 248
230 232 239 235 228 229 234 226 206 197 186 187 202 200 199 207 210 205 195 196 192 182 175 166 154 154 159 170 182 172 173 151 156 141 134 161 175 178 155 171 175 171 252
274 264 253 238 226 229 222 210 217 210 185 199 201 194 206 207 209 208 201 194 190 189 176 164 159 164 160 171 178 178 174 162 163 142 173 169 165 169 156 175 184 177 206
302 290 285 275 264 251 230 224 203 180 195 194 197 197 200 210 208 209 203 194 190 183 175 171 164 161 170 161 153 150 152 150 146 162 166 165 171 139 169 174 177 169 322
304 300 289 256 264 254 245 241 205 168 170 181 174 185 191 201 207 206 192 180 177 176 169 165 168 169 172 164 158 158 163 178 178 193 192 182 185 189 198 136 172 138 228
299 293 291 282 259 245 229 204 213 164 184 173 173 185 198 199 202 202 188 172 164 160 150 163 173 172 169 173 166 157 177 188 175 199 186 201 201 209 220 187 161 162 156
308 302 301 266 238 242 204 170 189 171 124 169 181 181 175 180 194 201 194 177 166 154 153 168 177 181 172 179 168 167 183 157 190 183 189 205 190 196 186 155 167 153 161
305 309 312 313 268 182 167 127 103 112 121 116 134 106 166 179 191 198 196 180 167 164 178 174 176 186 181 180 165 186 177 163 159 167 173 193 186 192 183 158 148 136 121
301 296 319 339 324 267 139 151 137 125 136 123 161 126 91 3 222 200 192 175 180 162 154 164 174 184 179 183 187 183 195 164 158 171 194 195 194 182 142 126 104 107 98
289 278 314 334 20 359 23 347 141 157 152 149 150 128 104 92 56 198 162 165 175 147 154 160 172 187 186 182 192 209 187 188 185 198 198 160 131 145 148 142 140 151 123
266 285 19 320 134 22 71 178 256 276 185 164 164 146 160 185 200 165 159 158 156 154 154 148 167 177 190 196 186 190 168 168 197 177 158 151 157 155 155 151 137 128 160
267 279 98 229 206 114 87 349 189 181 196 182 174 155 153 199 196 192 179 170 171 166 153 160 171 181 190 190 185 191 175 188 176 156 155 159 165 170 162 154 130 149 171
233 228 202 162 44 117 147 130 130 54 214 201 160 170 176 184 186 187 176 175 176 168 164 168 175 182 189 183 178 185 197 190 147 157 157 162 154 158 157 173 155 152 182
202 202 157 144 153 117 109 80 101 102 86 6 35 62 95 169 174 188 185 177 187 197 170 165 177 175 184 188 179 167 152 145 143 155 150 161 163 161 157 178 190 170 166
21 351 147 123 119 114 104 85 83 80 78 50 12 37 15 67 95 170 184 157 163 132 100 103 127 145 148 151 153 158 153 162 154 148 146 160 169 150 171 184 189 182 155
63 57 51 68 83 80 75 90 93 85 78 62 52 32 355 31 44 36 36 47 72 66 61 84 68 63 95 114 118 134 135 139 145 146 150 165 166 174 168 167 177 166 198
57 52 48 51 53 51 50 54 56 68 70 64 31 14 71 78 59 55 54 43 51 61 69 83 89 109 113 121 121 123 121 134 130 150 157 165 150 166 160 185 182 192 162
75 76 60 58 50 53 52 55 62 70 64 62 47 36 67 68 69 63 56 48 41 64 62 117 107 111 144 133 138 131 140 164 178 169 163 163 168 172 168 167 185 181 181
69 71 66 59 60 64 59 50 57 57 57 48 47 47 40 47 56 58 55 31 22 31 19 58 92 76 56 82 146 168 179 200 199 166 177 180 180 179 177 184 182 182 182
72 76 75 66 59 60 63 63 57 56 59 52 46 46 56 54 58 58 44 15 26 352 2 46 66 175 233 309 333 217 194 213 174 191 179 175 189 188 183 173 180 191 168
57 65 66 67 67 67 67 58 58 53 52 56 47 51 44 38 31 333 286 294 284 316 301 296 284 251 237 245 254 243 234 232 182 188 169 171 183 183 190 193 191 179 179
61 66 67 65 63 61 61 65 59 52 48 36 16 358 319 309 285 295 302 285 284 285 278 264 249 243 246 244 243 242 237 239 221 196 169 173 188 196 190 199 200 189 193